Regional Weather Roundup
Issued by NWS Newport/Morehead, NC

Current Version | Previous Version | Graphics & Text | Print | Product List | Glossary Off
Versions: 1 2 3 4 5 6 7 8 9 10 11 12 13 14 15 16 17 18 19 20 21 22 23 24 25 26 27 28 29 30 31 32 33 34 35 36 37 38 39 40 41 42 43 44 45 46 47 48 49 50

000
ASUS42 KMHX 021125
RWRMHX
WEATHER ROUNDUP FOR EASTERN NORTH CAROLINA
NATIONAL WEATHER SERVICE NEWPORT/MOREHEAD CITY NC
700 AM EDT WED SEP 02 2015

NOTE: "FAIR" INDICATES FEW OR NO CLOUDS BELOW 12,000 FEET
WITH NO SIGNIFICANT WEATHER AND/OR OBSTRUCTIONS TO VISIBILITY

NCZ015>017-031-032-045>047-102-103-021200-
NORTH COAST

CITY           SKY/WX    TMP DP  RH WIND       PRES   REMARKS
EDENTON        CLEAR     67  66  97 CALM      30.06R
ELIZABETH CITY FOG       70  70 100 CALM      30.06R VSB 1/4
KITTY HAWK     SUNNY     74  73  94 CALM      30.04R
MANTEO         FOG       70  70  99 CALM      30.05S VSB 3/4

$$

NCZ045>047-081-094-103-104-021200-
CENTRAL COAST

CITY           SKY/WX    TMP DP  RH WIND       PRES   REMARKS
FRISCO         CLEAR     77  74  90 NW6       30.05R
SWANQUARTER      N/A     72 N/A N/A NW1       30.03R

$$

NCZ095-097-098-100-101-021200-
SOUTHERN COAST

CITY           SKY/WX    TMP DP  RH WIND       PRES   REMARKS
BEAUFORT       CLEAR     74  74 100 W5        30.06R
CEDAR ISLAND     N/A     75 N/A N/A SW5       30.09S
JACKSONVILLE   CLEAR     72  70  93 W3        30.06R FOG
PINEY ISLAND   SUNNY    N/A N/A N/A NW7       30.06R HAZE
WILMINGTON       N/A     74  72  93 W5        30.07R


$$

NCZ011>013-027>030-043-044-078>080-089-090>093-098-021200-
COASTAL PLAIN

CITY           SKY/WX    TMP DP  RH WIND       PRES   REMARKS
AHOSKIE        CLEAR     66  65  97 CALM      30.07R
CLINTON        FOG       71  71 100 CALM      30.08R VSB 1/2
ELIZABETHTOWN  CLEAR     73  73 100 CALM      30.08R FOG
GOLDSBORO      CLEAR     70  68  94 CALM      30.06R
GREENVILLE     FOG       70  70 100 CALM      30.08R VSB 3/4
HAVELOCK       CLEAR     72  70  93 W5        30.07R
KENANSVILLE      N/A     70  69  98 CALM      30.08S FOG
KINSTON        FOG       70  68  94 CALM      30.08R VSB 1
NEW BERN       CLEAR     72  70  93 CALM      30.08R
RICHLANDS      CLOUDY    70  64  83 CALM      30.07S VSB 1/4
ROCKY MOUNT    CLEAR     69  68  96 CALM      30.07R FOG
WASHINGTON     CLEAR     68  67  97 CALM      30.07R
WHITEVILLE     CLEAR     73  71  95 CALM      30.07S FOG

$$

AMZ130-135-150-152-154-156-158-170-250-252-270-ANZ085-086-088-633-658-670-021200-
MARINE OBSERVATIONS

STATION/POSITION TIME  TEMP    WIND        PRES    WAVE   SWELL
                       AIR SEA DIR/SP/G            HT/PER HT/PER
                 (UTC) (F)     (DEG/KT/KT) (MB)    (FT/S) (FT/S)
CHESAPEAKE LIGHT 1100   77     280/  7/  7 1018.0
64 E VA BEACH    1050   77 78  320/  6/  6 1017.1    2/ 6   2/ 6
DUCK             1100   76 78  280/  6/  6 1016.9
2 E DUCK         1011      80                N/A     1/ 9
OREGON INLET     1100   76 81  290/  4/  5 1017.6
13E OREGON INLT  1100      79                N/A     2/ 9
HATTERAS CG      1100   79 82  320/  9/ 10 1017.4
DIAMOND BUOY     1050   80 83  320/ 10/ 12 1017.4    2/ 9   2/ 9
CAPE LOOKOUT     1100   78     300/  8/ 10 1017.6
BEAUFORT LAB     1100   75 80  340/  2/  5 1017.3
30 SE NEW RVR IN 1008   80 81  290/ 12/ 16 1018.0
30 SE NEW RVR IN 1025      81                N/A     3/ 7
27 SE WRIGHTSVLE 1100   77 81  310/ 12/ 14   N/A
5 SE WRIGHTSVLE  NOT AVBL
225 S CAPE HAT   1050   84 84  320/ 10/ 12 1017.5    2/10   2/10
41 SE CHARLESTON 1050   80 83  330/ 12/ 14 1017.5    2/ 7   2/ 7

$$


USA.gov is the U.S. government's official web portal to all federal, state and local government web resources and services.